TIME,DELAY(SENSOR),PRES,OXYGEN,RAWTEMP,T(OPTODE),TCPHASE,FLUOR,BETA(BETA700),BETA(BETA412),BETA(BETA440),CDOM,C(CSC),ED(ED411.90),ED(ED443.80),ED(ED489.40),ED(ED554.70),LU(LU412.20),LU(LU443.80),LU(LU489.40),LU(LU555.00),COMP,TILTX,TILTY,CHECK
1345586724,5804,884.4799804687500000,164.5776062011718800,418.9973144531250000,10.3959598541259770,39.4967613220214840,51,106,100,84,73,15532,2147455433,2147787154,2147577910,2147819254,2147308882,2147459949,2147743926,2148268452,1529,6,14,13611
1345590320,5803,919.0000000000000000,188.9465026855468800,497.3024902343750000,7.9645462036132810,39.1190986633300800,51,106,101,83,75,15528,2147442057,2147800365,2147580790,2147828233,2147306633,2147448246,2147755821,2148278272,3407,6,14,8508
1345593920,5805,1026.0000000000000000,196.6235046386718800,505.9804077148437500,7.6928048133850100,38.7794914245605500,51,105,101,83,76,15522,2147436909,2147795492,2147584731,2147831524,2147306971,2147451364,2147759899,2148276461,3253,6,14,56510
1345597520,5807,1153.0000000000000000,199.0897064208984400,508.0960083007812500,7.6264810562133790,38.6635894775390600,51,108,102,81,75,15525,2147438912,2147796032,2147583542,2147832896,2147305773,2147450971,2147756800,2148276864,356,6,14,39314
1345601120,5804,1212.0000000000000000,199.4452972412109400,510.2814025878906000,7.5579361915588380,38.6804313659668000,51,103,104,83,75,15520,2147442779,2147791085,2147584420,2147829257,2147305600,2147449353,2147761298,2148277330,47,6,14,56004
1345604720,5806,1044.0000000000000000,200.4134063720703000,511.1406860351562500,7.5309748649597170,38.6358718872070300,52,103,102,82,75,15519,2147436754,2147800064,2147582793,2147829650,2147303972,2147447643,2147758948,2148276105,757,6,14,35255
1345608320,5802,12.1000003814697270,201.2675018310547000,512.0526733398438000,7.5023541450500490,38.5989913940429700,51,104,102,82,75,15520,2147440329,2147793481,2147584932,2147828196,2147307986,2147450230,2147757110,2148276297,1226,6,14,12899
1345611920,5803,10.3000001907348630,201.1268005371093800,512.6331176757812000,7.4841370582580570,38.6175689697265600,51,102,101,83,75,15518,2147436800,2147796434,2147588077,2147829568,2147309138,2147449307,2147764726,2148276160,1353,6,14,9775
1345615520,5805,12.1999998092651370,202.1336059570312500,514.2152709960938000,7.4344630241394040,38.5841712951660160,51,103,103,82,75,15516,2147438729,2147800210,2147586084,2147828827,2147304813,2147450029,2147762038,2148274496,135,6,14,6221
1345619120,5803,10.3999996185302730,201.5603942871093800,515.0994873046875000,7.4066948890686035,38.6344795227050800,51,103,101,81,74,15516,2147438518,2147798025,2147585142,2147830848,2147308114,2147446144,2147760905,2148277723,3572,6,15,9385
1345622720,5806,1350.0000000000000000,201.8298950195312500,513.4713134765625000,7.4578242301940920,38.5898513793945300,52,104,101,82,75,15511,2147436608,2147797906,2147583936,2147831213,2147305746,2147448786,2147758336,2148278116,434,6,14,11771
1345626320,5803,1030.0000000000000000,201.3271942138672000,512.7805175781250000,7.4795098304748535,38.6084098815918000,51,107,101,82,75,15510,2147436818,2147797092,2147584064,2147832841,2147305344,2147446701,2147762176,2148277412,188,6,14,10880
1345629920,5803,13.1000003814697270,201.2637023925781200,514.4357299804688000,7.4275422096252440,38.6415405273437500,52,112,101,81,77,15511,2147439003,2147795556,2147585206,2147831506,2147310345,2147450825,2147761645,2148280091,3347,6,14,51372
1345633520,5805,10.8000001907348630,200.6768035888672000,511.9562988281250000,7.5053768157958980,38.6331901550293000,52,104,100,81,75,15504,2147437961,2147798299,2147585444,2147832566,2147306313,2147447433,2147762633,2148276306,254,6,14,29666
1345637120,5808,1085.0000000000000000,200.5283050537109400,511.5552978515625000,7.5179638862609860,38.6357116699218750,50,106,103,83,75,15504,2147437010,2147797504,2147582729,2147830217,2147306779,2147448320,2147759222,2148279597,54,6,14,38672
1345640720,5805,10.3999996185302730,201.3282012939453000,512.1317138671875000,7.4998741149902340,38.5967903137207000,52,107,103,83,75,15504,2147437513,2147797568,2147582793,2147829622,2147304676,2147451017,2147760301,2148275227,707,6,14,58055
1345644320,5802,11.8000001907348630,200.6502990722656200,513.2451782226562000,7.4649190902709960,38.6582298278808600,51,103,101,83,75,15499,2147439323,2147796004,2147581074,2147830985,2147307602,2147446765,2147760804,2148278134,3159,6,14,59434
1345647920,5802,1205.0000000000000000,200.2955932617187500,512.7282714843750000,7.4811477661132810,38.6708488464355500,51,105,101,83,76,15495,2147437092,2147796141,2147584457,2147831241,2147308836,2147449801,2147761380,2148279725,179,6,14,44843
1345651520,5802,10.8999996185302730,199.4324035644531200,512.2169189453125000,7.4971990585327150,38.7142601013183600,51,104,101,82,75,15495,2147435794,2147797650,2147586130,2147832749,2147309321,2147446893,2147763629,2148277714,3384,6,14,36809
1345655120,5804,1319.0000000000000000,199.5359039306640600,510.0867919921875000,7.5640411376953125,38.6705513000488300,51,106,100,83,76,15496,2147437906,2147791908,2147584685,2147830884,2147305078,2147446683,2147762203,2148280429,471,6,14,29055
1345658720,5801,12.5000000000000000,198.1302947998047000,509.9963073730469000,7.5668802261352540,38.7566108703613300,51,106,101,82,75,15488,2147437842,2147796361,2147585060,2147830400,2147310107,2147448201,2147762176,2148276681,3594,6,14,43947
1345662320,5805,13.1999998092651370,198.8352050781250000,510.0704040527344000,7.5645527839660645,38.7133712768554700,51,105,101,82,76,15464,2147439186,2147793417,2147583734,2147828772,2147307940,2147450898,2147762102,2148277513,301,6,14,52792
1345665920,5805,1030.0000000000000000,198.6797943115234400,508.9273986816406000,7.6004071235656740,38.7036399841308600,50,103,101,82,74,15456,2147437010,2147795154,2147586075,2147831378,2147307574,2147450258,2147759963,2148276973,139,6,14,29741
1345669520,5803,12.6000003814697270,197.2357025146484400,509.8913879394531000,7.5701689720153810,38.8102302551269500,51,106,101,83,77,15450,2147439716,2147797458,2147582299,2147831213,2147306029,2147446692,2147762240,2148277138,703,6,14,60051
1345673120,5803,12.1000003814697270,198.9841003417968800,510.5499877929687500,7.5495061874389650,38.7128715515136700,50,105,101,89,75,15445,2147436754,2147794596,2147584448,2147829677,2147306258,2147450578,2147764434,2148277037,319,6,14,23919
1345676720,5799,10.6000003814697270,199.7413024902343800,511.2211914062500000,7.5284481048583980,38.6782608032226560,51,103,101,82,76,15441,2147435849,2147799734,2147589604,2147830985,2147306870,2147451885,2147762121,2148275337,3384,6,14,42483
1345680320,5803,12.6999998092651370,200.3515014648437500,511.3973999023437500,7.5229182243347170,38.6439590454101560,51,104,101,82,75,15443,2147437366,2147797485,2147586075,2147830720,2147305536,2147450377,2147760393,2148276973,3561,6,15,42442
1345683920,5804,1050.0000000000000000,201.7622985839843800,514.1088867187500000,7.4378027915954590,38.6053810119628900,52,109,102,82,76,15442,2147438436,2147794075,2147584868,2147831387,2147304384,2147454144,2147760859,2148278948,713,6,14,43849
1345687520,5804,10.5000000000000000,201.9216003417968800,514.5936889648438000,7.4225797653198240,38.6034889221191400,51,114,100,82,75,15435,2147436772,2147793033,2147581257,2147830281,2147304740,2147459885,2147760832,2148276580,881,6,14,36165
1345691120,5805,1042.0000000000000000,202.1376953125000000,515.1024169921875000,7.4066047668457030,38.5992202758789060,51,104,101,84,76,15438,2147436608,2147795410,2147585709,2147833353,2147304804,2147448274,2147765165,2148279506,1022,6,15,1841
1345694720,5806,12.8000001907348630,202.0066986083984400,515.0725708007812000,7.4075398445129395,38.6073493957519500,51,104,100,83,74,15431,2147437229,2147795501,2147584045,2147830665,2147305965,2147448804,2147762514,2148273225,1068,6,14,9574
1345698320,5805,12.3999996185302730,200.4817047119140600,513.2606201171875000,7.4644360542297360,38.6689186096191400,51,104,101,82,76,15438,2147439241,2147797595,2147585179,2147830784,2147307913,2147447972,2147764873,2148276032,169,6,14,41064
1345701920,5804,13.3999996185302730,200.8083038330078000,512.2517700195312000,7.4961037635803220,38.6302680969238300,51,104,100,82,76,15432,2147437211,2147795437,2147587163,2147830537,2147306514,2147452269,2147761993,2148278601,233,6,14,27064
1345705520,5803,1336.0000000000000000,199.8321990966797000,511.1979064941406000,7.5291800498962400,38.6723518371582000,51,105,101,84,75,15431,2147438025,2147794642,2147584731,2147832438,2147306816,2147450075,2147763181,2148276178,3514,6,15,42676
1345709120,5802,1043.0000000000000000,199.5845031738281200,511.2539062500000000,7.5274200439453125,38.6880493164062500,50,109,101,83,77,15433,2147435126,2147790043,2147585069,2147832804,2147305490,2147451510,2147762825,2148279405,3397,6,14,60273
1345712720,5805,1009.0000000000000000,194.2371063232422000,504.0633850097656000,7.7528810501098630,38.8969001770019500,51,110,102,82,75,15443,2147442112,2147794678,2147583643,2147832320,2147309568,2147453339,2147759250,2148274925,2759,6,14,15133
1345716320,5805,1199.0000000000000000,192.9317016601562500,503.0794982910156000,7.7837028503417970,38.9631118774414060,52,105,101,82,76,15450,2147435675,2147795035,2147584164,2147830171,2147305746,2147452059,2147759780,2148275748,3572,6,14,38158
1345719920,5804,10.0000000000000000,191.7021942138672000,503.4007873535156000,7.7736377716064450,39.0468902587890600,51,103,102,83,75,15448,2147437613,2147796690,2147582921,2147826614,2147306578,2147449572,2147760585,2148276900,3576,6,14,21894
1345723520,5803,11.3999996185302730,193.6822967529297000,505.0327148437500000,7.7225069999694820,38.9486007690429700,52,106,101,88,76,15441,2147438747,2147796032,2147582656,2147833417,2147304594,2147455323,2147760393,2148277074,611,6,14,13106
1345727120,5806,10.1999998092651370,193.9463043212890600,506.3507995605469000,7.6811947822570800,38.9552307128906250,51,105,101,82,75,15448,2147437019,2147797101,2147584868,2147828909,2147305325,2147453485,2147756571,2148278363,449,6,14,58828
1345728657,5806,1063.0000000000000000,194.5328979492187500,507.3861999511719000,7.6487360000610350,38.9361000061035160,50,104,102,83,76,15445,2147437577,2147797046,2147585517,2147828187,2147306578,2147449929,2147758500,2148275145,804,6,14,44168
